TimePST,TemperatureF,Dew PointF,Humidity,Sea Level PressureIn,VisibilityMPH,Wind Direction,Wind SpeedMPH,Gust SpeedMPH,PrecipitationIn,Events,Conditions,WindDirDegrees,DateUTC
12:56 AM,28.0,10.0,47,30.23,10.0,South,8.1,-,N/A,,Clear,180,2013-02-28 08:56:00
1:56 AM,28.9,12.0,49,30.22,10.0,South,4.6,-,N/A,,Clear,180,2013-02-28 09:56:00
2:56 AM,30.0,8.1,40,30.21,10.0,South,3.5,-,N/A,,Clear,170,2013-02-28 10:56:00
3:56 AM,26.1,6.1,43,30.22,10.0,SE,9.2,-,N/A,,Clear,140,2013-02-28 11:56:00
4:56 AM,27.0,6.1,41,30.24,10.0,SE,4.6,-,N/A,,Partly Cloudy,140,2013-02-28 12:56:00
5:56 AM,26.1,6.1,43,30.26,10.0,SSE,6.9,-,N/A,,Clear,160,2013-02-28 13:56:00
6:13 AM,26.6,5.0,40,30.39,10.0,SSE,5.8,-,N/A,,Mostly Cloudy,150,2013-02-28 14:13:00
6:56 AM,28.9,7.0,40,30.27,10.0,SSW,4.6,-,N/A,,Mostly Cloudy,210,2013-02-28 14:56:00
7:56 AM,36.0,8.1,31,30.29,10.0,Calm,Calm,-,N/A,,Mostly Cloudy,0,2013-02-28 15:56:00
8:56 AM,43.0,9.0,25,30.30,10.0,South,3.5,-,N/A,,Mostly Cloudy,180,2013-02-28 16:56:00
9:56 AM,50.0,12.0,22,30.31,10.0,Calm,Calm,-,N/A,,Scattered Clouds,0,2013-02-28 17:56:00
10:56 AM,54.0,15.1,22,30.30,10.0,East,3.5,-,N/A,,Scattered Clouds,100,2013-02-28 18:56:00
11:56 AM,55.9,18.0,23,30.30,10.0,Calm,Calm,-,N/A,,Scattered Clouds,0,2013-02-28 19:56:00
12:56 PM,57.9,19.9,23,30.28,10.0,Variable,4.6,-,N/A,,Scattered Clouds,0,2013-02-28 20:56:00
1:56 PM,59.0,21.9,24,30.25,10.0,WSW,5.8,-,N/A,,Scattered Clouds,250,2013-02-28 21:56:00
2:56 PM,61.0,24.1,24,30.26,10.0,Calm,Calm,-,N/A,,Scattered Clouds,0,2013-02-28 22:56:00
3:56 PM,62.1,25.0,24,30.26,10.0,Variable,6.9,-,N/A,,Mostly Cloudy,0,2013-02-28 23:56:00
4:56 PM,60.1,25.0,26,30.26,10.0,Calm,Calm,-,N/A,,Overcast,0,2013-03-01 00:56:00
5:56 PM,55.9,24.1,29,30.27,10.0,Calm,Calm,-,N/A,,Overcast,0,2013-03-01 01:56:00
6:56 PM,50.0,23.0,35,30.28,10.0,Calm,Calm,-,N/A,,Scattered Clouds,0,2013-03-01 02:56:00
7:56 PM,44.1,21.0,40,30.30,10.0,Calm,Calm,-,N/A,,Scattered Clouds,0,2013-03-01 03:56:00
8:56 PM,41.0,19.0,41,30.32,10.0,SSE,4.6,-,N/A,,Partly Cloudy,150,2013-03-01 04:56:00
9:56 PM,41.0,21.0,45,30.33,10.0,WSW,3.5,-,N/A,,Scattered Clouds,240,2013-03-01 05:56:00
10:56 PM,41.0,21.9,47,30.33,10.0,South,3.5,-,N/A,,Clear,170,2013-03-01 06:56:00
11:56 PM,35.1,19.9,54,30.33,10.0,WSW,3.5,-,N/A,,Clear,240,2013-03-01 07:56:00